SAUDICOMSAT 3

Last updated on Wed Sep 23 2026 00:03:51 GMT+0000 (Coordinated Universal Time)

1 31125U 07012J 26265.46912835 .00000456 00000+0 82409-4 0 9992 2 31125 98.3270 242.9266 0040313 103.8936 256.6759 14.70824057 39128
UTC large
Height (km)
Speed (km/s)
/
Latitude / Longitude
Inclination (degrees)
Orbital Period (minutes)
Azimuth
Elevation
Range (km)
Doppler Factor

Next 0 passes for location: London (51.5072 / 0.1276)

No passes found over London.
SAUDICOMSAT 3